User: anonymous   Login
Location: Fort Wayne
(41.1310°N, 85.1290°W)
Time: 08:38:21
(UTC-04:00)
Language:

Cosmos 1980 - Orbit

View from above orbital plane
View from above orbital plane
View from above satellite
View from above satellite

Ground track
Ground track

The orbit data is extracted from the following two-line orbital elements,

1 19649U 88102A   18114.24574826 -.00000042  00000-0  31954-5 0  9995
2 19649  70.9973 132.9588 0006711 218.0986 141.9663 14.14678208518567
Epoch (UTC): 24 April 2018 05:53:52
Eccentricity: 0.0006711
inclination: 70.9973°
perigee height: 838 km
apogee height: 848 km
right ascension of ascending node: 132.9588°
argument of perigee: 218.0986°
revolutions per day: 14.14678208
mean anomaly at epoch: 141.9663°
orbit number at epoch: 51856

The dashed part of the orbit path shows where the satellite is in the earth's shadow,  

DLR